Weather History for KIKW - July, 2013

Change the Weather History Date:

Sunday, July 7, 2013

  Actual Average (KMBS) Record (KMBS)
Temperature  
Mean Temperature 75 °F 71 °F  
Max Temperature 81 °F 82 °F 91 °F (2010)
Min Temperature 69 °F 60 °F 48 °F (1997)
Degree Days  
Heating Degree Days 0    
Month to date heating degree days  
Since 1 June heating degree days  
Since 1 July heating degree days  
Cooling Degree Days 10    
Month to date cooling degree days  
Year to date cooling degree days  
Since 1 June cooling degree days  
Growing Degree Days 25 (Base 50)    
Moisture  
Dew Point 69 °F    
Average Humidity 84    
Maximum Humidity 96    
Minimum Humidity 63    
Precipitation  
Precipitation 0.01 in 0.07 in 0.63 in (2014)
Month to date precipitation 0.60  
Year to date precipitation 15.23  
Snow  
Snow 0.00 in - - ()
Month to date snowfall  
Since 1 June snowfall  
Since 1 July snowfall  
Snow Depth -    
Sea Level Pressure  
Sea Level Pressure 29.98 in    
Wind  
Wind Speed 3 mph (SSW)    
Max Wind Speed 10 mph    
Max Gust Speed -    
Visibility 9 miles    
Events Rain    
T = Trace of Precipitation, MM = Missing Value Source: NWS Daily Summary

Daily Weather History Graph

Daily Weather History Graph

Search for Another Location

Airport or City:

Trip Planner

Search our weather history database for the weather conditions in past years. The results will help you decide how hot, cold, wet, or windy it might be!

Date:

Astronomy

Jul. 07, 2013 Rise Set
Actual Time 6:03 AM EDT 9:20 PM EDT
Civil Twilight 5:27 AM EDT 9:55 PM EDT
Nautical Twilight 4:41 AM EDT 10:41 PM EDT
Astronomical Twilight 3:45 AM EDT 11:37 PM EDT
Moon 5:40 AM EDT (7/7) 8:41 PM EDT (7/7)
Length of Visible Light 16h 28m
Length of Day
15h 17m
Waning Crescent, 0% of the Moon is Illuminated
Jul 7
Waning Crescent
Jul 8
New
Jul 15
First Quarter
Jul 22
Full
Jul 29
Last Quarter

Hourly Weather History & Observations

Time (EDT) Temp. Heat Index Dew Point Humidity Pressure Visibility Wind Dir Wind Speed Gust Speed Precip Events Conditions
12:11 AM 71.2 °F - 69.1 °F 93% 30.00 in 10.0 mi Calm Calm - N/A   Clear
12:32 AM 72.5 °F - 69.4 °F 90% 30.01 in 10.0 mi SSW 3.5 mph - N/A   Clear
12:51 AM 73.6 °F - 70.0 °F 88% 30.00 in 10.0 mi SSW 3.5 mph - N/A   Clear
1:11 AM 73.6 °F - 70.0 °F 88% 30.00 in 10.0 mi Calm Calm - N/A   Clear
1:30 AM 73.6 °F - 69.6 °F 87% 30.00 in 10.0 mi Calm Calm - N/A   Clear
1:51 AM 73.0 °F - 69.4 °F 88% 30.00 in 10.0 mi Calm Calm - N/A   Clear
2:11 AM 72.9 °F - 68.9 °F 87% 29.99 in 10.0 mi WSW 3.5 mph - N/A   Scattered Clouds
2:30 AM 71.8 °F - 68.9 °F 91% 29.98 in 10.0 mi Calm Calm - N/A   Clear
2:51 AM 70.2 °F - 68.7 °F 95% 29.97 in 10.0 mi Calm Calm - N/A   Clear
3:11 AM 69.3 °F - 68.0 °F 96% 29.97 in 10.0 mi Calm Calm - N/A   Clear
3:31 AM 69.6 °F - 68.4 °F 96% 29.97 in 10.0 mi WSW 3.5 mph - N/A   Clear
3:51 AM 70.2 °F - 68.2 °F 93% 29.97 in 10.0 mi WSW 4.6 mph - N/A   Clear
4:11 AM 70.2 °F - 68.0 °F 93% 29.98 in 10.0 mi WSW 4.6 mph - N/A   Clear
4:31 AM 70.3 °F - 67.1 °F 89% 29.97 in 10.0 mi Calm Calm - N/A   Scattered Clouds
4:51 AM 70.2 °F - 67.3 °F 91% 29.98 in 10.0 mi Calm Calm - N/A   Overcast
5:11 AM 70.2 °F - 66.9 °F 89% 29.98 in 10.0 mi Calm Calm - N/A   Overcast
5:31 AM 70.2 °F - 66.9 °F 89% 29.98 in 10.0 mi Calm Calm - N/A   Overcast
5:51 AM 70.7 °F - 66.4 °F 86% 29.98 in 10.0 mi Calm Calm - N/A   Overcast
6:11 AM 70.7 °F - 66.2 °F 86% 29.99 in 10.0 mi Calm Calm - N/A   Overcast
6:31 AM 70.9 °F - 66.2 °F 85% 29.99 in 10.0 mi Calm Calm - N/A   Overcast
6:51 AM 70.9 °F - 66.2 °F 85% 29.99 in 10.0 mi Calm Calm - N/A   Overcast
7:11 AM 71.1 °F - 66.2 °F 85% 30.00 in 10.0 mi Calm Calm - N/A   Overcast
7:31 AM 70.9 °F - 66.4 °F 86% 30.00 in 10.0 mi WSW 3.5 mph - N/A   Overcast
7:51 AM 71.1 °F - 67.1 °F 87% 30.01 in 10.0 mi Calm Calm - N/A   Overcast
8:11 AM 71.2 °F - 67.3 °F 87% 30.01 in 7.0 mi SW 4.6 mph - N/A   Overcast
8:31 AM 70.2 °F - 68.9 °F 96% 30.01 in 3.0 mi SSW 3.5 mph - N/A Rain Light Rain
8:51 AM 70.5 °F - 69.3 °F 96% 30.01 in 4.0 mi Calm Calm - N/A   Overcast
9:12 AM 71.4 °F - 69.4 °F 93% 30.01 in 5.0 mi Calm Calm - N/A   Overcast
9:31 AM 71.8 °F - 69.1 °F 91% 30.01 in 7.0 mi Calm Calm - N/A   Overcast
9:51 AM 72.0 °F - 70.2 °F 94% 30.01 in 5.0 mi South 3.5 mph - N/A   Overcast
10:11 AM 72.5 °F - 70.0 °F 92% 30.01 in 5.0 mi SW 6.9 mph - N/A   Overcast
10:31 AM 72.5 °F - 69.6 °F 91% 30.01 in 7.0 mi SW 5.8 mph - N/A   Overcast
10:51 AM 71.6 °F - 69.8 °F 94% 30.01 in 4.0 mi SW 5.8 mph - N/A Rain Rain
11:11 AM 71.6 °F - 69.6 °F 93% 30.01 in 4.0 mi SSW 8.1 mph - N/A Rain Rain
11:31 AM 72.5 °F - 71.1 °F 95% 30.01 in 3.0 mi South 6.9 mph - N/A Rain Light Rain
11:51 AM 73.2 °F - 71.6 °F 95% 30.01 in 4.0 mi South 5.8 mph - N/A Rain Light Rain
12:11 PM 73.6 °F - 71.6 °F 93% 30.01 in 4.0 mi South 5.8 mph - N/A   Scattered Clouds
12:31 PM 74.5 °F - 72.0 °F 92% 30.01 in 5.0 mi South 4.6 mph - N/A   Scattered Clouds
12:51 PM 75.4 °F - 72.1 °F 90% 30.00 in 5.0 mi SSW 4.6 mph - N/A   Mostly Cloudy
1:11 PM 75.6 °F - 72.0 °F 89% 30.00 in 5.0 mi South 5.8 mph - N/A   Mostly Cloudy
1:31 PM 76.5 °F - 72.9 °F 89% 29.99 in 5.0 mi SSE 5.8 mph - N/A   Scattered Clouds
1:51 PM 77.2 °F - 73.0 °F 87% 29.99 in 7.0 mi SSE 5.8 mph - N/A   Scattered Clouds
2:11 PM 78.1 °F - 73.0 °F 84% 29.98 in 7.0 mi South 6.9 mph - N/A   Scattered Clouds
2:31 PM 78.8 °F - 71.1 °F 77% 29.98 in 10.0 mi SW 5.8 mph - N/A   Clear
2:51 PM 79.9 °F - 70.5 °F 73% 29.98 in 10.0 mi South 8.1 mph - N/A   Clear
3:11 PM 80.6 °F 84.2 °F 70.7 °F 72% 29.97 in 10.0 mi South 10.4 mph - N/A   Clear
3:31 PM 80.6 °F 83.8 °F 69.4 °F 69% 29.97 in 10.0 mi South 8.1 mph - N/A   Clear
3:52 PM 80.6 °F 83.9 °F 70.0 °F 70% 29.96 in 10.0 mi South 9.2 mph - N/A   Clear
4:11 PM 80.6 °F 83.6 °F 69.1 °F 68% 29.96 in 10.0 mi South 8.1 mph - N/A   Scattered Clouds
4:31 PM 80.8 °F 83.9 °F 69.4 °F 68% 29.95 in 10.0 mi South 8.1 mph - N/A   Scattered Clouds
4:52 PM 81.3 °F 84.5 °F 69.1 °F 66% 29.94 in 10.0 mi South 5.8 mph - 0.01 in   Clear
5:11 PM 80.6 °F 83.4 °F 68.4 °F 66% 29.95 in 10.0 mi SSW 5.8 mph - N/A   Scattered Clouds
5:31 PM 80.6 °F 83.5 °F 68.9 °F 67% 29.95 in 10.0 mi SSW 4.6 mph - N/A   Mostly Cloudy
5:52 PM 81.5 °F 84.2 °F 67.8 °F 63% 29.95 in 10.0 mi Calm Calm - N/A   Mostly Cloudy
6:11 PM 81.7 °F 84.7 °F 68.4 °F 64% 29.94 in 10.0 mi SW 3.5 mph - N/A   Scattered Clouds
6:31 PM 80.8 °F 83.8 °F 68.9 °F 67% 29.94 in 10.0 mi SW 3.5 mph - N/A   Clear
6:51 PM 80.6 °F 83.6 °F 69.3 °F 68% 29.94 in 10.0 mi SSW 5.8 mph - N/A   Clear
7:11 PM 79.7 °F - 69.3 °F 70% 29.95 in 10.0 mi SSW 4.6 mph - N/A   Clear
7:32 PM 78.8 °F - 68.4 °F 70% 29.95 in 10.0 mi SSW 4.6 mph - N/A   Scattered Clouds
7:51 PM 78.1 °F - 68.7 °F 73% 29.95 in 10.0 mi South 4.6 mph - N/A   Scattered Clouds
8:11 PM 77.4 °F - 69.1 °F 76% 29.95 in 10.0 mi SW 3.5 mph - N/A   Clear
8:32 PM 77.2 °F - 69.1 °F 76% 29.96 in 10.0 mi Calm Calm - N/A   Scattered Clouds
8:51 PM 76.3 °F - 69.4 °F 79% 29.96 in 10.0 mi Calm Calm - N/A Rain Light Rain
9:11 PM 75.7 °F - 69.4 °F 81% 29.97 in 10.0 mi Calm Calm - N/A   Scattered Clouds
9:31 PM 75.4 °F - 69.3 °F 81% 29.98 in 10.0 mi Calm Calm - N/A   Clear
9:51 PM 74.5 °F - 69.8 °F 85% 29.98 in 10.0 mi Calm Calm - N/A   Clear
10:12 PM 74.3 °F - 69.8 °F 86% 29.99 in 10.0 mi Calm Calm - N/A   Clear
10:31 PM 74.3 °F - 69.8 °F 86% 29.99 in 10.0 mi SW 3.5 mph - N/A   Scattered Clouds
10:51 PM 74.7 °F - 69.6 °F 84% 29.99 in 10.0 mi WSW 3.5 mph - N/A   Mostly Cloudy
11:12 PM 74.5 °F - 69.8 °F 85% 29.98 in 10.0 mi SW 3.5 mph - N/A   Mostly Cloudy
11:31 PM 74.3 °F - 69.4 °F 85% 29.98 in 10.0 mi SW 3.5 mph - N/A   Scattered Clouds
11:51 PM 73.6 °F - 69.4 °F 87% 29.99 in 10.0 mi Calm Calm - N/A   Scattered Clouds